Flag for Greece Weather past 2 weeks in Iráklion, Crete, Greece

Now
72 °F

Passing clouds.


Feels Like: 75 °F
Forecast: 57 / 70 °F
Wind: 12 mph from South

Location: Heraklion Airport

Current Time: Oct 23, 2014 at 3:56:12 AM

Latest Report: Oct 23, 2014 at 2:50 AM


Visibility: N/A

Pressure: 29.74 "Hg

Humidity: 65%

Dew point: 59 °F

Location of IráklionLocation

Historic Weather in Iráklion — Graph

°F

Iráklion temperature yesterday

Maximum temperature yesterday: 79 °F (at 11:50 AM)
Minimum temperature yesterday: 61 °F (at 6:50 AM)
Average temperature yesterday: 70 °F

Past Weeks' High & Low Weather Summary

 TemperatureHumidityPressure
High79 °F (Oct 22, 11:50 AM)94% (Oct 8, 2:50 AM)30.12 "Hg (Oct 8, 2:50 AM)
Low57 °F (Oct 21, 5:50 AM)48% (Oct 22, 11:50 AM)29.74 "Hg (Oct 23, 12:50 AM)
Average69 °F70%29.99 "Hg
* Reported Oct 8 2:20 AM — Oct 23 2:50 AM, Iráklion, Weather by CustomWeather, © 2014

Note: Actual official high and low records may vary slightly from our data, if they occured in-between our weather recording intervals... More about our weather records

Advertising

Iráklion weather history for previous 24 hours

 ConditionsComfort  
Time TempWeatherWind HumidityBarometerVisibility
2:50 AM
Oct 23
72 °FPassing clouds.12 mph65%29.74 "HgN/A
1:50 AM72 °FPassing clouds.20 mph65%29.74 "HgN/A
1:20 AM72 °FPassing clouds.21 mph61%29.74 "HgN/A
12:50 AM72 °FPassing clouds.22 mph61%29.74 "HgN/A
12:20 AM70 °FPassing clouds.17 mph69%29.77 "HgN/A
11:50 PM
Oct 22
70 °FPassing clouds.14 mph69%29.77 "HgN/A
11:20 PM70 °FPassing clouds.16 mph73%29.80 "HgN/A
10:50 PM70 °FPassing clouds.13 mph73%29.80 "HgN/A
10:20 PM72 °FPassing clouds.14 mph65%29.80 "HgN/A
9:20 PM72 °FPassing clouds.12 mph65%29.80 "HgN/A
8:50 PM72 °FPassing clouds.16 mph65%29.80 "HgN/A
8:20 PM72 °FPassing clouds.14 mph69%29.77 "HgN/A
7:50 PM72 °FPassing clouds.15 mph69%29.77 "HgN/A
7:20 PM72 °FScattered clouds.14 mph69%29.80 "HgN/A
6:50 PM72 °FScattered clouds.10 mph69%29.80 "HgN/A
6:20 PM73 °FScattered clouds.13 mph65%29.80 "HgN/A
5:50 PM73 °FScattered clouds.14 mph65%29.80 "HgN/A
5:20 PM73 °FScattered clouds.17 mph61%29.80 "HgN/A
4:50 PM73 °FPartly sunny.21 mph61%29.80 "HgN/A
4:20 PM72 °FPartly sunny.17 mph65%29.80 "HgN/A
3:50 PM72 °FPartly sunny.20 mph65%29.80 "HgN/A
3:20 PM75 °FPartly sunny.23 mph61%29.83 "HgN/A
2:50 PM75 °FScattered clouds.23 mph61%29.83 "HgN/A
2:20 PM77 °FScattered clouds.17 mph51%29.83 "HgN/A
1:50 PM77 °FScattered clouds.21 mph51%29.83 "HgN/A
1:20 PM77 °FPartly sunny.20 mph51%29.86 "HgN/A
12:50 PM77 °FPartly sunny.15 mph51%29.86 "HgN/A
12:20 PM79 °FScattered clouds.14 mph48%29.86 "HgN/A
11:50 AM79 °FScattered clouds.12 mph48%29.86 "HgN/A
11:20 AM77 °FScattered clouds.13 mph54%29.86 "HgN/A
10:50 AM77 °FScattered clouds.9 mph54%29.86 "HgN/A
10:20 AM72 °FPassing clouds.10 mph65%29.86 "HgN/A
9:50 AM72 °FPassing clouds.8 mph65%29.86 "HgN/A
9:20 AM70 °FPassing clouds.7 mph64%29.86 "HgN/A
8:50 AM68 °FPassing clouds.10 mph64%29.86 "HgN/A
8:20 AM64 °FPassing clouds.9 mph73%29.86 "HgN/A
7:50 AM63 °FPassing clouds.12 mph77%29.89 "HgN/A
7:20 AM61 °FPassing clouds.8 mph83%29.89 "HgN/A
6:50 AM61 °FPassing clouds.8 mph83%29.89 "HgN/A
6:20 AM63 °FPassing clouds.8 mph73%29.89 "HgN/A
5:50 AM63 °FPassing clouds.3 mph73%29.89 "HgN/A
5:20 AM64 °FPassing clouds.5 mph73%29.89 "HgN/A
4:50 AM64 °FPassing clouds.5 mph73%29.89 "HgN/A
3:50 AM64 °FPassing clouds.6 mph73%29.92 "HgN/A
3:20 AM64 °FPassing clouds.7 mph73%29.92 "HgN/A
Weather by CustomWeather, © 2014

See weather overviewHow to use our weather pages